Weather Roundup
Issued by NWS Chicago, IL

Home | Current Version | Previous Version | Graphics & Text | Print | Product List | Glossary On
Versions: 1 2 3 4 5 6 7 8 9 10 11 12 13 14 15 16 17 18 19 20 21 22 23 24 25 26 27 28 29 30 31 32 33 34 35 36 37 38 39 40 41 42 43 44 45 46 47 48 49 50
000
NZUS59 KLOT 160306
HRRLOT

CHICAGO AREA WEATHER ROUNDUP
NATIONAL WEATHER SERVICE CHICAGO/ROMEOVILLE IL
1000 PM CDT MON SEP 15 2014

NOTE: "FAIR" INDICATES FEW OR NO CLOUDS BELOW 12,000 FEET WITH NO
SIGNIFICANT WEATHER AND/OR OBSTRUCTIONS TO VISIBILITY.

* THESE STATIONS ARE NOT UNDER NWS QUALITY CONTROL. THEY ALSO MAY NOT
  REPORT WEATHER SUCH AS PRECIPITATION OR FOG.

ILZ005-006-012>014-019>023-160400-
NORTHEAST ILLINOIS

CITY           SKY/WX    TMP DP  RH WIND       PRES   REMARKS
OHARE          PTCLDY    54  48  80 NW8       30.16R
MIDWAY         MOCLDY    57  51  80 N9        30.15R
AURORA         CLOUDY    54  50  86 NW6       30.18R
LANSING*       CLOUDY    56  55  97 NW3       30.14S
JOLIET*        MOCLDY    55  52  90 N3        30.17R
WAUKEGAN       CLEAR     48  46  93 W3        30.16R FOG
DUPAGE AIRPORT PTCLDY    53  50  89 N6        30.16R
WHEELING       CLEAR     52  48  86 N5        30.18R
KANKAKEE*      CLOUDY    53  53  98 CALM      30.15R FOG
MORRIS*        CLOUDY    54  54 100 NW3       30.16R
LEWIS AIRPORT* CLOUDY    55  53  96 N5        30.16R
NORTHERLY IS     N/A     57  51  80 N9          N/A
$$

WIZ051-052-058>065-066-070>072-160400-
SOUTHEAST WISCONSIN

CITY           SKY/WX    TMP DP  RH WIND       PRES   REMARKS
MILWAUKEE      CLEAR     51  48  89 NW5       30.16S
KENOSHA*       CLEAR     44  42  93 W3        30.17R FOG
RACINE*        CLEAR     49  47  93 W6        30.18R
BURLINGTON     CLEAR     42  42 100 SW6       30.17S
WAUKESHA       CLEAR     43  43 100 CALM      30.18R
WEST BEND      CLEAR     45  43  93 W3        30.16R
$$

INZ001>003-010>013-019-020-160400-
NORTHWEST INDIANA

CITY           SKY/WX    TMP DP  RH WIND       PRES   REMARKS
GARY*          CLOUDY    59  54  84 N9        30.14S
MICHIGAN CITY* NOT AVBL
RENSSELAER*    NOT AVBL
VALPARAISO     CLOUDY    55  53  93 W5        30.14R FOG
$$

LMZ740>746-160400-
SOUTHERN LAKE MICHIGAN

STATION/POSITION TIME  SKY/WX   TEMP WIND        PRES    VSBY
                                AIR  DIR/SP/G
                 (UTC)          (F)  (DEG/KT/KT) (MB)    (MI)
HARRISON CRIB    0300            58  360/ 14/ 16   N/A
BURNHAM HARBOR   0300            57  290/  7/ 11   N/A
CALUMET HARBOR   0200            58                N/A
BURNS HARBOR     NOT AVBL
MICHIGAN CITY    0300            60  350/ 14/ 18   N/A
$$

ABBREVIATIONS USED IN REMARKS
   TC - TEMPERATURE IN CELSIUS
  WCI - WIND CHILL INDEX
   HX - HEAT INDEX
  VSB - VISIBILITY
$$



USA.gov is the U.S. government's official web portal to all federal, state and local government web resources and services.